Location: Ústí nad Labem
(50.6611°N, 14.0531°E)
Time: 22:49:41
(UTC+02:00)

S-56A Canister/Altair - All Passes

Search period start: 12 April 2024 00:00
Search period end: 22 April 2024 00:00
Orbit: 638 x 2489 km, 38.9° (Epoch: 11 April)

Date Brightness Start Highest point End Pass type
(mag) Time Alt. Az. Time Alt. Az. Time Alt. Az.
12 Apr - 02:00:11 10° W 02:10:12 29° SSW 02:21:52 10° SSE visible
12 Apr - 04:10:52 10° WSW 04:13:45 11° SW 04:16:43 10° SW visible
12 Apr - 19:19:16 10° S 19:24:41 21° SE 19:31:41 10° E daylight
12 Apr - 21:19:45 10° SW 21:27:34 41° SSE 21:38:42 10° ESE visible
12 Apr - 23:22:23 10° WSW 23:31:47 44° S 23:44:30 10° ESE visible
13 Apr - 01:26:28 10° W 01:36:17 31° SSW 01:48:06 10° SSE visible
13 Apr - 03:34:58 10° WSW 03:40:02 13° SW 03:45:20 10° SSW visible
13 Apr - 18:46:53 10° S 18:51:23 17° SE 18:56:58 10° ESE daylight
13 Apr - 20:46:45 10° SW 20:53:58 38° SSE 21:04:16 10° E visible
13 Apr - 22:49:06 10° WSW 22:57:56 44° S 23:10:13 10° ESE visible
14 Apr - 00:52:52 10° W 01:02:23 32° SSW 01:14:14 10° SSE visible
14 Apr - 03:00:05 10° WSW 03:06:16 15° SW 03:12:56 10° SSW visible
14 Apr - 18:14:50 10° SSE 18:18:09 14° SE 18:22:02 10° ESE daylight
14 Apr - 20:13:48 10° SW 20:20:27 34° SSE 20:29:52 10° E visible
14 Apr - 22:15:53 10° WSW 22:24:10 43° S 22:35:53 10° ESE visible
15 Apr - 00:19:21 10° W 00:28:30 34° SSW 00:40:16 10° SE visible
15 Apr - 02:25:40 10° WSW 02:32:29 16° SW 02:40:04 10° S visible
15 Apr - 17:43:51 10° SE 17:44:58 10° SE 17:46:08 10° SE daylight
15 Apr - 19:40:56 10° SW 19:47:01 31° SSE 19:55:27 10° E daylight
15 Apr - 21:42:44 10° WSW 21:50:27 42° S 22:01:33 10° ESE visible
15 Apr - 23:45:55 10° W 23:54:40 34° SSW 00:06:14 10° SE visible
16 Apr - 01:51:32 10° WSW 01:58:42 18° SW 02:06:55 10° S visible
16 Apr - 19:08:10 10° SSW 19:13:38 27° SSE 19:21:05 10° E daylight
16 Apr - 21:09:38 10° WSW 21:16:50 40° S 21:27:13 10° ESE visible
16 Apr - 23:12:35 10° WSW 23:20:52 35° SSW 23:32:07 10° SE visible
17 Apr - 01:17:37 10° WSW 01:24:56 20° SW 01:33:32 10° S visible
17 Apr - 18:35:28 10° SSW 18:40:20 23° SSE 18:46:43 10° ESE daylight
17 Apr - 20:36:36 10° WSW 20:43:16 38° S 20:52:54 10° ESE visible
17 Apr - 22:39:18 10° WSW 22:47:08 36° SSW 22:57:58 10° SE visible
18 Apr - 00:43:51 10° WSW 00:51:10 21° SSW 01:00:01 10° S visible
18 Apr - 18:02:54 10° SSW 18:07:05 19° SSE 18:12:21 10° ESE daylight
18 Apr - 20:03:35 10° SW 20:09:46 36° S 20:18:36 10° ESE daylight
18 Apr - 22:06:06 10° WSW 22:13:27 36° S 22:23:47 10° SE visible
19 Apr - 00:10:15 10° WSW 00:17:26 22° SSW 00:26:21 10° SSE visible
19 Apr - 17:30:29 10° S 17:33:52 16° SE 17:37:56 10° ESE daylight
19 Apr - 19:30:39 10° SW 19:36:21 33° SSE 19:44:22 10° ESE daylight
19 Apr - 21:32:56 10° WSW 21:39:50 35° S 21:49:36 10° SE visible
19 Apr - 23:36:45 10° WSW 23:43:43 23° SSW 23:52:35 10° SSE visible
20 Apr - 16:58:22 10° SSE 17:00:42 13° SE 17:03:19 10° ESE daylight
20 Apr - 18:57:46 10° SW 19:02:59 30° SSE 19:10:10 10° ESE daylight
20 Apr - 20:59:50 10° WSW 21:06:16 35° S 21:15:25 10° SE visible
20 Apr - 23:03:20 10° WSW 23:10:03 24° SSW 23:18:45 10° SSE visible
21 Apr - 18:24:55 10° SW 18:29:40 27° SSE 18:36:02 10° ESE daylight
21 Apr - 20:26:46 10° WSW 20:32:46 34° S 20:41:15 10° SE visible
21 Apr - 22:30:01 10° WSW 22:36:25 24° SSW 22:44:51 10° SSE visible
